Time,TemperatureF,DewpointF,PressureIn,WindDirection,WindDirectionDegrees,WindSpeedMPH,WindSpeedGustMPH,Humidity,HourlyPrecipIn,Conditions,Clouds,dailyrainin,SoftwareType,DateUTC
2013-04-01 00:00:00,33.0,-99.9,-100.00,North,-999,-999.0,-999.0,-999,0.08,,,0.12,,2013-04-01 04:00:00,
2013-04-01 00:24:00,33.0,-99.9,-100.00,North,-999,-999.0,-999.0,-999,0.08,,,0.12,,2013-04-01 04:24:00,
2013-04-01 00:33:00,33.0,-99.9,-100.00,North,-999,-999.0,-999.0,-999,0.08,,,0.12,,2013-04-01 04:33:00,
2013-04-01 00:44:00,33.0,-99.9,-100.00,North,-999,-999.0,-999.0,-999,0.08,,,0.12,,2013-04-01 04:44:00,
2013-04-01 00:54:00,33.0,-99.9,-100.00,North,-999,-999.0,-999.0,-999,0.08,,,0.12,,2013-04-01 04:54:00,
2013-04-01 01:00:00,34.0,-99.9,-100.00,North,-999,-999.0,-999.0,-999,0.05,,,0.17,,2013-04-01 05:00:00,
2013-04-01 01:23:00,34.0,-99.9,-100.00,North,-999,-999.0,-999.0,-999,0.05,,,0.17,,2013-04-01 05:23:00,
2013-04-01 01:33:00,34.0,-99.9,-100.00,North,-999,-999.0,-999.0,-999,0.05,,,0.17,,2013-04-01 05:33:00,
2013-04-01 01:43:00,34.0,-99.9,-100.00,North,-999,-999.0,-999.0,-999,0.05,,,0.17,,2013-04-01 05:43:00,
2013-04-01 01:53:00,34.0,-99.9,-100.00,North,-999,-999.0,-999.0,-999,0.05,,,0.17,,2013-04-01 05:53:00,
2013-04-01 02:00:00,33.0,-99.9,-100.00,North,-999,-999.0,-999.0,-999,0.05,,,0.22,,2013-04-01 06:00:00,
2013-04-01 02:23:00,33.0,-99.9,-100.00,North,-999,-999.0,-999.0,-999,0.05,,,0.22,,2013-04-01 06:23:00,
2013-04-01 02:34:00,33.0,-99.9,-100.00,North,-999,-999.0,-999.0,-999,0.05,,,0.22,,2013-04-01 06:34:00,
2013-04-01 02:43:00,33.0,-99.9,-100.00,North,-999,-999.0,-999.0,-999,0.05,,,0.22,,2013-04-01 06:43:00,
2013-04-01 02:53:00,33.0,-99.9,-100.00,North,-999,-999.0,-999.0,-999,0.05,,,0.22,,2013-04-01 06:53:00,
2013-04-01 03:00:00,33.0,-99.9,-100.00,North,-999,-999.0,-999.0,-999,0.03,,,0.25,,2013-04-01 07:00:00,
2013-04-01 03:23:00,33.0,-99.9,-100.00,North,-999,-999.0,-999.0,-999,0.03,,,0.25,,2013-04-01 07:23:00,
2013-04-01 03:33:00,33.0,-99.9,-100.00,North,-999,-999.0,-999.0,-999,0.03,,,0.25,,2013-04-01 07:33:00,
2013-04-01 03:43:00,33.0,-99.9,-100.00,North,-999,-999.0,-999.0,-999,0.03,,,0.25,,2013-04-01 07:43:00,
2013-04-01 03:53:00,33.0,-99.9,-100.00,North,-999,-999.0,-999.0,-999,0.03,,,0.25,,2013-04-01 07:53:00,
2013-04-01 04:00:00,33.0,-99.9,-100.00,North,-999,-999.0,-999.0,-999,0.00,,,0.25,,2013-04-01 08:00:00,
2013-04-01 04:23:00,33.0,-99.9,-100.00,North,-999,-999.0,-999.0,-999,0.00,,,0.25,,2013-04-01 08:23:00,
2013-04-01 04:33:00,33.0,-99.9,-100.00,North,-999,-999.0,-999.0,-999,0.00,,,0.25,,2013-04-01 08:33:00,
2013-04-01 04:44:00,33.0,-99.9,-100.00,North,-999,-999.0,-999.0,-999,0.00,,,0.25,,2013-04-01 08:44:00,
2013-04-01 04:53:00,33.0,-99.9,-100.00,North,-999,-999.0,-999.0,-999,0.00,,,0.25,,2013-04-01 08:53:00,
2013-04-01 05:00:00,33.0,-99.9,-100.00,North,-999,-999.0,-999.0,-999,0.00,,,0.25,,2013-04-01 09:00:00,
2013-04-01 05:23:00,33.0,-99.9,-100.00,North,-999,-999.0,-999.0,-999,0.00,,,0.25,,2013-04-01 09:23:00,
2013-04-01 05:33:00,33.0,-99.9,-100.00,North,-999,-999.0,-999.0,-999,0.00,,,0.25,,2013-04-01 09:33:00,
2013-04-01 05:43:00,33.0,-99.9,-100.00,North,-999,-999.0,-999.0,-999,0.00,,,0.25,,2013-04-01 09:43:00,
2013-04-01 05:54:00,33.0,-99.9,-100.00,North,-999,-999.0,-999.0,-999,0.00,,,0.25,,2013-04-01 09:54:00,
2013-04-01 06:00:00,33.0,-99.9,-100.00,North,-999,-999.0,-999.0,-999,0.00,,,0.25,,2013-04-01 10:00:00,
2013-04-01 06:34:00,33.0,-99.9,-100.00,North,-999,-999.0,-999.0,-999,0.00,,,0.25,,2013-04-01 10:34:00,
2013-04-01 06:43:00,33.0,-99.9,-100.00,North,-999,-999.0,-999.0,-999,0.00,,,0.25,,2013-04-01 10:43:00,
2013-04-01 06:54:00,33.0,-99.9,-100.00,North,-999,-999.0,-999.0,-999,0.00,,,0.25,,2013-04-01 10:54:00,
2013-04-01 07:00:00,34.0,-99.9,-100.00,North,-999,-999.0,-999.0,-999,0.00,,,0.25,,2013-04-01 11:00:00,
2013-04-01 07:23:00,34.0,-99.9,-100.00,North,-999,-999.0,-999.0,-999,0.00,,,0.25,,2013-04-01 11:23:00,
2013-04-01 07:34:00,34.0,-99.9,-100.00,North,-999,-999.0,-999.0,-999,0.00,,,0.25,,2013-04-01 11:34:00,
2013-04-01 07:43:00,34.0,-99.9,-100.00,North,-999,-999.0,-999.0,-999,0.00,,,0.25,,2013-04-01 11:43:00,
2013-04-01 07:53:00,34.0,-99.9,-100.00,North,-999,-999.0,-999.0,-999,0.00,,,0.25,,2013-04-01 11:53:00,
2013-04-01 08:00:00,36.0,-99.9,-100.00,North,-999,-999.0,-999.0,-999,0.00,,,0.25,,2013-04-01 12:00:00,
2013-04-01 08:24:00,36.0,-99.9,-100.00,North,-999,-999.0,-999.0,-999,0.00,,,0.25,,2013-04-01 12:24:00,
2013-04-01 08:33:00,36.0,-99.9,-100.00,North,-999,-999.0,-999.0,-999,0.00,,,0.25,,2013-04-01 12:33:00,
2013-04-01 08:43:00,36.0,-99.9,-100.00,North,-999,-999.0,-999.0,-999,0.00,,,0.25,,2013-04-01 12:43:00,
2013-04-01 08:53:00,36.0,-99.9,-100.00,North,-999,-999.0,-999.0,-999,0.00,,,0.25,,2013-04-01 12:53:00,
2013-04-01 09:00:00,43.0,-99.9,-100.00,North,-999,-999.0,-999.0,-999,0.00,,,0.25,,2013-04-01 13:00:00,
2013-04-01 09:23:00,43.0,-99.9,-100.00,North,-999,-999.0,-999.0,-999,0.00,,,0.25,,2013-04-01 13:23:00,
2013-04-01 09:33:00,43.0,-99.9,-100.00,North,-999,-999.0,-999.0,-999,0.00,,,0.25,,2013-04-01 13:33:00,
2013-04-01 09:43:00,43.0,-99.9,-100.00,North,-999,-999.0,-999.0,-999,0.00,,,0.25,,2013-04-01 13:43:00,
2013-04-01 09:53:00,43.0,-99.9,-100.00,North,-999,-999.0,-999.0,-999,0.00,,,0.25,,2013-04-01 13:53:00,
2013-04-01 10:00:00,45.0,-99.9,-100.00,North,-999,-999.0,-999.0,-999,0.00,,,0.25,,2013-04-01 14:00:00,
2013-04-01 10:23:00,45.0,-99.9,-100.00,North,-999,-999.0,-999.0,-999,0.00,,,0.25,,2013-04-01 14:23:00,
2013-04-01 10:43:00,45.0,-99.9,-100.00,North,-999,-999.0,-999.0,-999,0.00,,,0.25,,2013-04-01 14:43:00,
2013-04-01 10:53:00,45.0,-99.9,-100.00,North,-999,-999.0,-999.0,-999,0.00,,,0.25,,2013-04-01 14:53:00,
2013-04-01 11:00:00,48.0,-99.9,-100.00,North,-999,-999.0,-999.0,-999,0.00,,,0.25,,2013-04-01 15:00:00,
2013-04-01 11:23:00,48.0,-99.9,-100.00,North,-999,-999.0,-999.0,-999,0.00,,,0.25,,2013-04-01 15:23:00,
2013-04-01 11:44:00,48.0,-99.9,-100.00,North,-999,-999.0,-999.0,-999,0.00,,,0.25,,2013-04-01 15:44:00,
2013-04-01 11:54:00,48.0,-99.9,-100.00,North,-999,-999.0,-999.0,-999,0.00,,,0.25,,2013-04-01 15:54:00,
2013-04-01 12:00:00,49.0,-99.9,-100.00,North,-999,-999.0,-999.0,-999,0.00,,,0.25,,2013-04-01 16:00:00,
2013-04-01 12:34:00,49.0,-99.9,-100.00,North,-999,-999.0,-999.0,-999,0.00,,,0.25,,2013-04-01 16:34:00,
2013-04-01 12:43:00,49.0,-99.9,-100.00,North,-999,-999.0,-999.0,-999,0.00,,,0.25,,2013-04-01 16:43:00,
2013-04-01 12:53:00,49.0,-99.9,-100.00,North,-999,-999.0,-999.0,-999,0.00,,,0.25,,2013-04-01 16:53:00,
2013-04-01 13:00:00,43.0,-99.9,-100.00,North,-999,-999.0,-999.0,-999,0.01,,,0.26,,2013-04-01 17:00:00,
2013-04-01 13:23:00,43.0,-99.9,-100.00,North,-999,-999.0,-999.0,-999,0.01,,,0.26,,2013-04-01 17:23:00,
2013-04-01 13:43:00,43.0,-99.9,-100.00,North,-999,-999.0,-999.0,-999,0.01,,,0.26,,2013-04-01 17:43:00,
2013-04-01 13:54:00,43.0,-99.9,-100.00,North,-999,-999.0,-999.0,-999,0.01,,,0.26,,2013-04-01 17:54:00,
2013-04-01 14:00:00,39.0,-99.9,-100.00,North,-999,-999.0,-999.0,-999,0.02,,,0.28,,2013-04-01 18:00:00,
2013-04-01 14:43:00,39.0,-99.9,-100.00,North,-999,-999.0,-999.0,-999,0.02,,,0.28,,2013-04-01 18:43:00,
2013-04-01 14:54:00,39.0,-99.9,-100.00,North,-999,-999.0,-999.0,-999,0.02,,,0.28,,2013-04-01 18:54:00,
2013-04-01 15:00:00,36.0,-99.9,-100.00,North,-999,-999.0,-999.0,-999,0.01,,,0.29,,2013-04-01 19:00:00,
2013-04-01 15:23:00,36.0,-99.9,-100.00,North,-999,-999.0,-999.0,-999,0.01,,,0.29,,2013-04-01 19:23:00,
2013-04-01 15:43:00,36.0,-99.9,-100.00,North,-999,-999.0,-999.0,-999,0.01,,,0.29,,2013-04-01 19:43:00,
2013-04-01 15:53:00,36.0,-99.9,-100.00,North,-999,-999.0,-999.0,-999,0.01,,,0.29,,2013-04-01 19:53:00,
2013-04-01 16:00:00,34.0,-99.9,-100.00,North,-999,-999.0,-999.0,-999,0.00,,,0.29,,2013-04-01 20:00:00,
2013-04-01 16:23:00,34.0,-99.9,-100.00,North,-999,-999.0,-999.0,-999,0.00,,,0.29,,2013-04-01 20:23:00,
2013-04-01 16:33:00,34.0,-99.9,-100.00,North,-999,-999.0,-999.0,-999,0.00,,,0.29,,2013-04-01 20:33:00,
2013-04-01 16:53:00,34.0,-99.9,-100.00,North,-999,-999.0,-999.0,-999,0.00,,,0.29,,2013-04-01 20:53:00,
2013-04-01 17:00:00,32.0,-99.9,-100.00,North,-999,-999.0,-999.0,-999,0.00,,,0.29,,2013-04-01 21:00:00,
2013-04-01 17:23:00,32.0,-99.9,-100.00,North,-999,-999.0,-999.0,-999,0.00,,,0.29,,2013-04-01 21:23:00,
2013-04-01 17:33:00,32.0,-99.9,-100.00,North,-999,-999.0,-999.0,-999,0.00,,,0.29,,2013-04-01 21:33:00,
2013-04-01 17:44:00,32.0,-99.9,-100.00,North,-999,-999.0,-999.0,-999,0.00,,,0.29,,2013-04-01 21:44:00,
2013-04-01 17:53:00,32.0,-99.9,-100.00,North,-999,-999.0,-999.0,-999,0.00,,,0.29,,2013-04-01 21:53:00,
2013-04-01 18:00:00,31.0,-99.9,-100.00,North,-999,-999.0,-999.0,-999,0.00,,,0.29,,2013-04-01 22:00:00,
2013-04-01 18:33:00,31.0,-99.9,-100.00,North,-999,-999.0,-999.0,-999,0.00,,,0.29,,2013-04-01 22:33:00,
2013-04-01 18:44:00,31.0,-99.9,-100.00,North,-999,-999.0,-999.0,-999,0.00,,,0.29,,2013-04-01 22:44:00,
2013-04-01 18:53:00,31.0,-99.9,-100.00,North,-999,-999.0,-999.0,-999,0.00,,,0.29,,2013-04-01 22:53:00,
2013-04-01 19:00:00,30.0,-99.9,-100.00,North,-999,-999.0,-999.0,-999,0.00,,,0.29,,2013-04-01 23:00:00,
2013-04-01 19:33:00,30.0,-99.9,-100.00,North,-999,-999.0,-999.0,-999,0.00,,,0.29,,2013-04-01 23:33:00,
2013-04-01 19:43:00,30.0,-99.9,-100.00,North,-999,-999.0,-999.0,-999,0.00,,,0.29,,2013-04-01 23:43:00,
2013-04-01 19:54:00,30.0,-99.9,-100.00,North,-999,-999.0,-999.0,-999,0.00,,,0.29,,2013-04-01 23:54:00,
2013-04-01 20:00:00,28.0,-99.9,-100.00,North,-999,-999.0,-999.0,-999,0.00,,,0.29,,2013-04-02 00:00:00,
2013-04-01 20:23:00,28.0,-99.9,-100.00,North,-999,-999.0,-999.0,-999,0.00,,,0.29,,2013-04-02 00:23:00,
2013-04-01 20:33:00,28.0,-99.9,-100.00,North,-999,-999.0,-999.0,-999,0.00,,,0.29,,2013-04-02 00:33:00,
2013-04-01 20:43:00,28.0,-99.9,-100.00,North,-999,-999.0,-999.0,-999,0.00,,,0.29,,2013-04-02 00:43:00,
2013-04-01 20:53:00,28.0,-99.9,-100.00,North,-999,-999.0,-999.0,-999,0.00,,,0.29,,2013-04-02 00:53:00,
2013-04-01 21:00:00,26.0,-99.9,-100.00,North,-999,-999.0,-999.0,-999,0.00,,,0.27,,2013-04-02 01:00:00,
2013-04-01 21:23:00,26.0,-99.9,-100.00,North,-999,-999.0,-999.0,-999,0.00,,,0.27,,2013-04-02 01:23:00,
2013-04-01 21:33:00,26.0,-99.9,-100.00,North,-999,-999.0,-999.0,-999,0.00,,,0.27,,2013-04-02 01:33:00,
2013-04-01 21:43:00,26.0,-99.9,-100.00,North,-999,-999.0,-999.0,-999,0.00,,,0.27,,2013-04-02 01:43:00,
2013-04-01 21:53:00,26.0,-99.9,-100.00,North,-999,-999.0,-999.0,-999,0.00,,,0.27,,2013-04-02 01:53:00,
2013-04-01 22:00:00,25.0,-99.9,-100.00,North,-999,-999.0,-999.0,-999,0.00,,,0.27,,2013-04-02 02:00:00,
2013-04-01 22:23:00,25.0,-99.9,-100.00,North,-999,-999.0,-999.0,-999,0.00,,,0.27,,2013-04-02 02:23:00,
2013-04-01 22:33:00,25.0,-99.9,-100.00,North,-999,-999.0,-999.0,-999,0.00,,,0.27,,2013-04-02 02:33:00,
2013-04-01 22:43:00,25.0,-99.9,-100.00,North,-999,-999.0,-999.0,-999,0.00,,,0.27,,2013-04-02 02:43:00,
2013-04-01 22:53:00,25.0,-99.9,-100.00,North,-999,-999.0,-999.0,-999,0.00,,,0.27,,2013-04-02 02:53:00,
2013-04-01 23:00:00,24.0,-99.9,-100.00,North,-999,-999.0,-999.0,-999,0.00,,,0.25,,2013-04-02 03:00:00,
2013-04-01 23:23:00,24.0,-99.9,-100.00,North,-999,-999.0,-999.0,-999,0.00,,,0.25,,2013-04-02 03:23:00,
2013-04-01 23:34:00,24.0,-99.9,-100.00,North,-999,-999.0,-999.0,-999,0.00,,,0.25,,2013-04-02 03:34:00,
2013-04-01 23:44:00,24.0,-99.9,-100.00,North,-999,-999.0,-999.0,-999,0.00,,,0.25,,2013-04-02 03:44:00,
2013-04-01 23:54:00,24.0,-99.9,-100.00,North,-999,-999.0,-999.0,-999,0.00,,,0.25,,2013-04-02 03:54:00,